period_start,C,m1,H,J0,J1,J2,J3,J4,J5,JA,JB,JC,JD,JJ,JK,JN,#
2017-04-13 00:04:59,0.10,4.02,0.00,21.96,25.07,29.06,14.50,48.16,1010.26,2035.00,2235.65,2170.34,2464.09,600.09,594.49,52.34,0000 0000 0000 0000 000000
2017-04-13 00:10:01,0.10,4.02,0.00,22.00,25.10,29.08,14.47,48.12,1010.26,2035.00,2234.44,2169.59,2463.13,599.90,594.41,52.39,0000 0000 0000 0000 000000
2017-04-13 00:15:02,0.08,4.03,0.00,22.01,25.12,29.06,14.50,48.20,1010.25,2034.98,2233.23,2168.79,2462.14,599.91,594.20,52.44,0000 0000 0000 0000 000000
2017-04-13 00:20:04,0.09,4.03,0.00,22.05,25.15,29.12,14.50,48.09,1010.27,2034.97,2231.83,2167.97,2461.13,599.91,594.22,52.49,0000 0000 0000 0000 000000
2017-04-13 00:25:05,0.10,4.04,0.00,22.09,25.17,29.13,14.48,48.13,1010.27,2034.96,2230.64,2167.08,2460.17,599.97,594.18,52.54,0000 0000 0000 0000 000000
2017-04-13 00:30:06,0.07,4.04,0.00,22.08,25.19,29.12,14.55,48.15,1010.23,2034.80,2229.40,2166.21,2459.22,600.07,594.14,52.59,0000 0000 0000 0000 000000
2017-04-13 00:35:08,0.04,4.04,0.00,22.13,25.21,29.17,14.49,48.23,1010.27,2034.41,2228.12,2165.40,2458.16,599.92,594.00,52.64,0000 0000 0000 0000 000000
2017-04-13 00:40:09,0.12,4.05,0.00,22.18,25.24,29.22,14.43,48.17,1010.27,2034.20,2226.57,2164.43,2457.07,599.94,593.90,52.69,0000 0000 0000 0000 000000
2017-04-13 00:45:10,0.09,4.05,0.00,22.19,25.26,29.21,14.46,48.23,1010.27,2034.05,2225.02,2163.42,2455.93,599.41,593.23,52.74,0000 0000 0000 0000 000000
2017-04-13 00:50:12,0.12,4.06,0.00,22.24,25.30,29.22,14.41,48.13,1010.26,2034.02,2223.63,2162.46,2454.76,599.72,593.58,52.79,0000 0000 0000 0000 000000
2017-04-13 00:55:13,0.09,4.06,0.00,22.30,25.33,29.24,14.47,48.11,1010.27,2034.00,2222.38,2161.61,2453.76,600.19,593.91,52.84,0000 0000 0000 0000 000000
2017-04-13 01:00:13,0.09,4.07,0.00,22.32,25.36,29.27,14.44,48.31,1010.27,2034.00,2221.03,2160.73,2452.72,599.70,593.43,52.89,0000 0000 0000 0000 000000
2017-04-13 01:05:15,0.10,4.07,0.00,22.36,25.39,29.31,14.47,48.29,1010.27,2034.00,2219.62,2159.89,2451.70,600.15,593.67,52.94,0000 0000 0000 0000 000000
2017-04-13 01:10:16,0.09,4.08,0.00,22.44,25.42,29.34,14.45,48.26,1010.27,2034.00,2218.43,2159.03,2450.75,600.22,593.54,53.00,0000 0000 0000 0000 000000
2017-04-13 01:15:18,0.09,4.09,0.00,22.40,25.46,29.35,14.46,48.29,1010.27,2033.98,2217.33,2158.15,2449.75,600.25,593.76,53.05,0000 0000 0000 0000 000000
2017-04-13 01:20:19,0.09,4.09,0.00,22.39,25.50,29.40,14.41,48.32,1010.28,2033.94,2216.11,2157.27,2448.81,599.80,593.39,53.10,0000 0000 0000 0000 000000
2017-04-13 01:25:20,0.02,4.09,0.00,22.47,25.54,29.44,14.47,48.25,1010.32,2033.62,2215.13,2156.69,2447.99,600.01,593.41,53.15,0000 0000 0000 0000 000000
2017-04-13 01:30:21,0.03,4.09,0.00,22.53,25.58,29.46,14.53,48.37,1010.30,2033.15,2214.34,2156.02,2447.15,600.12,593.40,53.20,0000 0000 0000 0000 000000
2017-04-13 01:35:23,0.07,4.10,0.00,22.52,25.62,29.48,14.49,48.35,1010.29,2033.03,2213.71,2155.39,2446.52,600.11,593.40,53.25,0000 0000 0000 0000 000000
2017-04-13 01:40:24,0.06,4.10,0.00,22.53,25.66,29.53,14.44,48.33,1010.31,2033.00,2212.82,2154.81,2445.71,599.92,593.17,53.30,0000 0000 0000 0000 000000
2017-04-13 01:45:26,0.08,4.10,0.00,22.61,25.71,29.53,14.45,48.30,1010.61,2033.00,2211.78,2154.03,2444.88,600.09,593.33,53.35,0000 0000 0000 0000 000000
2017-04-13 01:50:27,0.08,4.11,0.00,22.68,25.75,29.58,14.43,48.23,1010.76,2032.97,2210.82,2153.27,2444.06,599.92,593.13,53.40,0000 0000 0000 0000 000000
2017-04-13 01:55:28,0.02,4.11,0.00,22.64,25.79,29.61,14.43,48.23,1010.76,2032.76,2210.02,2152.76,2443.25,599.95,593.28,53.45,0000 0000 0000 0000 000000
2017-04-13 02:00:29,0.02,4.11,0.00,22.67,25.83,29.64,14.48,48.27,1010.76,2032.20,2209.15,2152.03,2442.59,600.11,593.51,53.50,0000 0000 0000 0000 000000
2017-04-13 02:05:30,0.06,4.11,0.00,22.78,25.86,29.70,14.41,48.27,1010.76,2032.04,2208.36,2151.50,2441.90,599.89,592.92,53.55,0000 0000 0000 0000 000000
2017-04-13 02:10:32,0.05,4.12,0.00,22.80,25.90,29.72,14.52,48.23,1010.76,2032.00,2207.61,2150.96,2441.08,600.13,592.95,53.60,0000 0000 0000 0000 000000
2017-04-13 02:15:33,0.07,4.12,0.00,22.78,25.94,29.72,14.51,48.33,1010.76,2032.00,2206.88,2150.22,2440.54,600.12,593.19,53.65,0000 0000 0000 0000 000000
2017-04-13 02:20:35,0.04,4.12,0.00,22.91,25.98,29.78,14.41,48.23,1010.76,2031.99,2206.07,2149.86,2439.89,599.74,592.59,53.70,0000 0000 0000 0000 000000
2017-04-13 02:25:36,0.08,4.13,0.00,22.97,26.02,29.84,14.40,48.23,1010.77,2031.97,2205.38,2149.06,2439.07,600.09,592.80,53.75,0000 0000 0000 0000 000000
2017-04-13 02:30:38,-0.00,4.13,0.00,22.96,26.06,29.82,14.40,48.27,1010.80,2031.53,2204.61,2148.63,2438.45,599.89,592.53,53.80,0000 0000 0000 0000 000000
2017-04-13 02:35:39,0.01,4.13,0.00,22.99,26.09,29.88,14.42,48.26,1010.82,2031.05,2203.82,2148.01,2437.81,599.84,592.42,53.85,0000 0000 0000 0000 000000
2017-04-13 02:40:41,0.08,4.13,0.00,23.06,26.13,29.91,14.47,48.23,1010.88,2031.00,2203.03,2147.36,2437.03,600.17,592.68,53.91,0000 0000 0000 0000 000000
2017-04-13 02:45:42,0.05,4.14,0.00,23.08,26.17,29.98,14.40,48.16,1011.16,2031.00,2202.23,2146.94,2436.38,600.04,592.70,53.96,0000 0000 0000 0000 000000
2017-04-13 02:50:44,0.08,4.14,0.00,23.15,26.21,30.01,14.38,48.19,1011.00,2030.96,2201.32,2146.12,2435.79,600.07,592.58,54.01,0000 0000 0000 0000 000000
2017-04-13 02:55:45,0.03,4.14,0.00,23.23,26.25,30.02,14.42,48.27,1011.10,2030.73,2200.58,2145.71,2435.03,600.25,592.65,54.06,0000 0000 0000 0000 000000
2017-04-13 03:00:47,0.01,4.14,0.00,23.20,26.28,30.05,14.53,48.33,1011.23,2030.27,2199.89,2145.03,2434.29,600.32,592.82,54.11,0000 0000 0000 0000 000000
2017-04-13 03:05:48,0.06,4.14,0.00,23.26,26.32,30.12,14.44,48.27,1011.24,2030.04,2198.99,2144.45,2433.62,600.06,592.49,54.16,0000 0000 0000 0000 000000
2017-04-13 03:10:49,0.04,4.15,0.00,23.35,26.36,30.14,14.43,48.25,1011.24,2030.00,2198.10,2143.97,2432.96,600.07,592.32,54.21,0000 0000 0000 0000 000000
2017-04-13 03:15:51,0.09,4.15,0.00,23.38,26.41,30.20,14.40,48.27,1011.24,2029.99,2197.21,2143.15,2432.11,599.91,592.02,54.26,0000 0000 0000 0000 000000
2017-04-13 03:20:52,0.07,4.15,0.00,23.42,26.45,30.23,14.46,48.25,1011.24,2029.98,2196.56,2142.65,2431.53,600.06,592.10,54.31,0000 0000 0000 0000 000000
2017-04-13 03:25:54,0.02,4.16,0.00,23.46,26.49,30.25,14.41,48.36,1011.26,2029.89,2195.74,2142.02,2430.94,599.86,591.85,54.36,0000 0000 0000 0000 000000
2017-04-13 03:30:55,0.02,4.16,0.00,23.52,26.54,30.31,14.47,48.29,1011.31,2029.44,2194.97,2141.41,2430.12,600.03,591.94,54.41,0000 0000 0000 0000 000000
2017-04-13 03:35:56,0.11,4.16,0.00,23.57,26.58,30.32,14.41,48.31,1011.30,2029.06,2193.46,2140.62,2429.12,600.28,591.96,54.46,0000 0000 0000 0000 000000
2017-04-13 03:40:57,0.13,4.17,0.00,23.65,26.62,30.37,14.40,48.23,1011.36,2029.00,2191.42,2139.18,2427.67,599.88,591.47,54.51,0000 0000 0000 0000 000000
2017-04-13 03:45:58,0.06,4.17,0.00,23.68,26.66,30.42,14.36,48.27,1011.32,2029.00,2190.50,2138.65,2426.98,599.66,591.26,54.56,0000 0000 0000 0000 000000
2017-04-13 03:51:00,0.06,4.18,0.00,23.74,26.70,30.45,14.44,48.27,1011.33,2028.99,2189.80,2138.02,2426.18,600.30,591.75,54.61,0000 0000 0000 0000 000000
2017-04-13 03:56:01,0.05,4.18,0.00,23.81,26.75,30.52,14.37,48.32,1011.43,2028.80,2188.87,2137.35,2425.51,599.64,590.89,54.66,0000 0000 0000 0000 000000
2017-04-13 04:01:02,0.01,4.18,0.00,23.84,26.79,30.54,14.37,48.15,1011.53,2028.18,2187.88,2136.72,2424.70,599.61,590.99,54.71,0000 0000 0000 0000 000000
2017-04-13 04:06:04,0.05,4.18,0.00,23.89,26.83,30.56,14.35,48.32,1011.62,2028.02,2187.00,2136.02,2423.99,599.91,591.24,54.76,0000 0000 0000 0000 000000
2017-04-13 04:11:05,0.09,4.19,0.00,23.96,26.88,30.63,14.38,48.26,1011.72,2028.00,2186.12,2135.39,2423.19,599.64,590.77,54.82,0000 0000 0000 0000 000000
2017-04-13 04:16:07,0.07,4.19,0.00,24.00,26.92,30.65,14.42,48.23,1011.73,2028.00,2185.22,2134.85,2422.42,600.26,591.46,54.87,0000 0000 0000 0000 000000
2017-04-13 04:21:08,0.07,4.19,0.00,24.06,26.97,30.71,14.38,48.24,1011.73,2027.98,2184.45,2134.08,2421.79,600.05,591.11,54.92,0000 0000 0000 0000 000000
2017-04-13 04:26:09,0.04,4.20,0.00,24.43,27.02,30.75,14.41,48.25,1011.73,2027.81,2183.72,2133.55,2421.01,600.64,590.96,54.97,0000 0000 0000 0000 000000
2017-04-13 04:31:11,0.01,4.20,0.00,24.36,27.08,30.72,14.41,48.34,1011.73,2027.24,2182.73,2132.87,2420.19,600.51,590.95,55.02,0000 0000 0000 0000 000000
2017-04-13 04:36:11,0.09,4.20,0.00,24.45,27.13,30.75,14.38,48.44,1011.73,2027.02,2181.54,2132.01,2419.26,599.99,590.35,55.07,0000 0000 0000 0000 000000
2017-04-13 04:41:13,0.09,4.21,0.00,24.42,27.18,30.81,14.30,48.46,1011.73,2027.00,2180.20,2131.10,2418.23,599.78,590.13,55.12,0000 0000 0000 0000 000000
2017-04-13 04:46:14,0.12,4.21,0.00,24.31,27.22,30.84,14.35,48.38,1011.73,2026.99,2178.83,2130.16,2417.18,599.60,590.16,55.17,0000 0000 0000 0000 000000
2017-04-13 04:51:15,0.10,4.22,0.00,24.27,27.26,30.88,14.28,48.50,1011.73,2026.92,2177.25,2129.13,2416.01,599.73,590.42,55.22,0000 0000 0000 0000 000000
2017-04-13 04:56:16,0.05,4.22,0.00,24.28,27.28,30.93,14.42,48.52,1011.73,2026.46,2175.87,2128.22,2415.00,600.32,590.97,55.27,0000 0000 0000 0000 000000
2017-04-13 05:01:18,0.05,4.22,0.00,24.27,27.31,30.95,14.46,48.40,1011.73,2026.11,2174.88,2127.56,2414.09,600.18,590.77,55.32,0000 0000 0000 0000 000000
2017-04-13 05:06:19,0.06,4.23,0.00,24.29,27.32,30.95,14.37,48.37,1011.73,2026.03,2173.99,2126.98,2413.28,599.86,590.45,55.37,0000 0000 0000 0000 000000
2017-04-13 05:11:20,0.09,4.23,0.00,24.32,27.35,30.92,14.36,48.28,1011.73,2026.01,2173.03,2126.15,2412.63,600.11,590.70,55.42,0000 0000 0000 0000 000000
2017-04-13 05:16:22,0.07,4.24,0.00,24.40,27.37,30.92,14.37,48.39,1011.73,2026.00,2171.97,2125.61,2411.88,600.21,590.57,55.47,0000 0000 0000 0000 000000
2017-04-13 05:21:23,0.06,4.24,0.00,24.68,27.40,30.96,14.29,48.31,1011.73,2026.00,2171.07,2125.00,2411.05,600.04,589.87,55.52,0000 0000 0000 0000 000000
2017-04-13 05:26:24,0.09,4.24,0.00,24.43,27.43,30.98,14.38,48.52,1011.73,2025.98,2170.24,2124.23,2410.31,600.18,590.40,55.57,0000 0000 0000 0000 000000
2017-04-13 05:31:25,0.06,4.25,0.00,24.56,27.46,31.01,14.44,48.47,1011.73,2025.96,2169.34,2123.82,2409.67,600.33,590.45,55.62,0000 0000 0000 0000 000000
2017-04-13 05:36:27,0.02,4.25,0.00,24.58,27.48,31.01,14.39,48.57,1011.73,2025.65,2168.49,2123.06,2408.97,600.33,590.31,55.67,0000 0000 0000 0000 000000
2017-04-13 05:41:28,0.07,4.25,0.00,24.52,27.50,31.02,14.37,48.47,1011.73,2025.33,2167.68,2122.56,2408.15,599.99,590.14,55.73,0000 0000 0000 0000 000000
2017-04-13 05:46:30,0.01,4.25,0.00,24.47,27.52,31.07,14.35,48.48,1011.73,2025.16,2166.91,2122.01,2407.71,599.52,589.76,55.78,0000 0000 0000 0000 000000
2017-04-13 05:51:31,0.07,4.26,0.00,24.48,27.52,31.12,14.39,48.61,1011.73,2025.08,2166.06,2121.46,2407.01,600.42,590.61,55.83,0000 0000 0000 0000 000000
2017-04-13 05:56:32,0.06,4.26,0.00,24.52,27.55,31.13,14.33,48.51,1011.73,2025.02,2165.18,2120.99,2406.25,599.99,590.10,55.88,0000 0000 0000 0000 000000
2017-04-13 06:01:33,0.07,4.26,0.00,24.76,27.55,31.00,14.36,48.55,1011.74,2025.01,2164.53,2120.31,2405.77,600.23,589.88,55.93,0000 0000 0000 0000 000000
2017-04-13 06:06:34,0.05,4.27,0.00,24.61,27.57,30.96,14.37,48.57,1011.75,2025.00,2163.63,2119.88,2405.01,600.24,590.24,55.98,0000 0000 0000 0000 000000
2017-04-13 06:11:36,0.09,4.27,0.00,24.57,27.58,31.02,14.36,48.63,1011.77,2025.00,2162.66,2119.07,2404.21,600.04,590.12,56.03,0000 0000 0000 0000 000000
2017-04-13 06:16:37,0.06,4.27,0.00,24.69,27.60,31.03,14.34,48.55,1011.86,2025.00,2161.83,2118.66,2403.70,599.84,589.70,56.08,0000 0000 0000 0000 000000
2017-04-13 06:21:38,0.05,4.28,0.00,24.73,27.60,31.01,14.33,48.57,1011.87,2025.00,2161.04,2118.02,2403.02,599.72,589.59,56.13,0000 0000 0000 0000 000000
2017-04-13 06:26:40,0.08,4.28,0.00,24.76,27.62,30.98,14.39,48.64,1011.78,2025.00,2160.23,2117.65,2402.43,600.31,589.98,56.18,0000 0000 0000 0000 000000
2017-04-13 06:31:41,0.06,4.28,0.00,24.78,27.62,30.98,14.25,48.62,1011.76,2025.00,2159.26,2117.01,2401.80,599.90,589.59,56.23,0000 0000 0000 0000 000000
2017-04-13 06:36:42,0.09,4.29,0.00,24.75,27.62,30.96,14.28,48.79,1011.79,2025.00,2158.18,2116.22,2401.02,599.80,589.50,56.28,0000 0000 0000 0000 000000
2017-04-13 06:41:44,0.07,4.29,0.00,24.79,27.62,30.95,14.33,48.70,1011.77,2025.00,2157.38,2115.81,2400.28,600.02,589.67,56.33,0000 0000 0000 0000 000000
2017-04-13 06:46:45,0.06,4.30,0.00,24.87,27.62,30.89,14.36,48.77,1011.76,2024.99,2156.66,2115.06,2399.90,600.17,589.54,56.38,0000 0000 0000 0000 000000
2017-04-13 06:51:47,0.04,4.30,0.00,24.85,27.62,30.87,14.28,48.63,1011.78,2024.99,2155.94,2114.83,2399.08,599.91,589.38,56.43,0000 0000 0000 0000 000000
2017-04-13 06:56:48,0.08,4.30,0.00,24.86,27.62,30.87,14.35,48.78,1011.89,2024.98,2155.09,2114.06,2398.56,600.36,589.82,56.48,0000 0000 0000 0000 000000
2017-04-13 07:01:49,0.04,4.30,0.00,24.86,27.61,30.85,14.34,48.83,1012.11,2024.98,2154.48,2113.87,2398.00,600.11,589.80,56.53,0000 0000 0000 0000 000000
2017-04-13 07:06:51,0.06,4.31,0.00,24.86,27.60,30.81,14.29,48.77,1012.17,2024.99,2153.99,2113.13,2397.48,599.55,589.45,56.58,0000 0000 0000 0000 000000
2017-04-13 07:11:52,0.06,4.31,0.00,24.89,27.60,30.82,14.29,48.73,1012.20,2024.99,2153.01,2112.76,2396.76,599.87,589.59,56.64,0000 0000 0000 0000 000000
2017-04-13 07:16:54,0.24,4.32,0.00,24.94,27.60,30.80,14.34,48.74,1012.22,2024.99,2150.55,2110.90,2394.68,600.01,589.59,56.69,0000 0000 0000 0000 000000
2017-04-13 07:21:55,0.21,4.33,0.00,24.98,27.60,30.80,14.35,48.76,1012.21,2024.99,2148.35,2109.19,2392.67,600.10,589.63,56.74,0000 0000 0000 0000 000000
2017-04-13 07:26:56,0.24,4.34,0.00,24.96,27.58,30.76,14.29,48.71,1012.22,2024.99,2145.79,2107.13,2390.39,600.03,589.56,56.79,0000 0000 0000 0000 000000
2017-04-13 07:31:57,0.19,4.35,0.00,24.96,27.57,30.76,14.32,48.73,1012.22,2024.99,2143.64,2105.32,2388.39,599.98,589.57,56.84,0000 0000 0000 0000 000000
2017-04-13 07:36:58,0.20,4.37,0.00,24.96,27.56,30.75,14.37,48.71,1012.22,2024.99,2141.39,2103.49,2386.35,600.11,589.61,56.89,0000 0000 0000 0000 000000
2017-04-13 07:41:59,0.14,4.37,0.00,24.96,27.55,30.72,14.28,48.73,1012.22,2024.99,2139.69,2102.21,2384.91,599.80,589.36,56.94,0000 0000 0000 0000 000000
2017-04-13 07:47:00,0.10,4.38,0.00,24.97,27.53,30.70,14.25,48.61,1012.22,2024.99,2138.40,2101.19,2383.99,599.47,589.03,56.99,0000 0000 0000 0000 000000
2017-04-13 07:52:02,0.06,4.38,0.00,24.98,27.52,30.70,14.31,48.72,1012.22,2025.01,2137.57,2100.88,2383.17,599.70,589.31,57.04,0000 0000 0000 0000 000000
2017-04-13 07:57:03,0.06,4.39,0.00,25.00,27.50,30.68,14.29,48.64,1012.22,2025.02,2136.88,2100.13,2382.84,599.85,589.34,57.09,0000 0000 0000 0000 000000
2017-04-13 08:02:05,0.05,4.39,0.00,25.01,27.48,30.62,14.37,48.62,1012.23,2025.06,2136.08,2099.98,2382.10,600.31,589.75,57.14,0000 0000 0000 0000 000000
2017-04-13 08:07:06,0.08,4.39,0.00,25.02,27.47,30.66,14.31,48.58,1012.22,2025.03,2135.58,2099.28,2381.63,599.90,589.57,57.19,0000 0000 0000 0000 000000
2017-04-13 08:12:07,0.22,4.40,0.00,25.01,27.46,30.66,14.35,48.50,1012.23,2025.15,2133.58,2097.73,2379.89,599.87,589.31,57.24,0000 0000 0000 0000 000000
2017-04-13 08:17:09,0.25,4.41,0.00,25.04,27.45,30.65,14.30,48.58,1012.24,2025.28,2131.05,2095.74,2377.67,600.35,589.75,57.29,0000 0000 0000 0000 000000
2017-04-13 08:22:10,0.33,4.43,0.00,25.03,27.43,30.66,14.25,48.53,1012.25,2025.57,2127.94,2093.23,2374.86,599.84,589.25,57.34,0000 0000 0000 0000 000000
2017-04-13 08:27:11,0.26,4.44,0.00,25.04,27.42,30.64,14.25,48.63,1012.24,2025.61,2125.13,2091.03,2372.42,599.85,589.38,57.39,0000 0000 0000 0000 000000
2017-04-13 08:32:13,0.20,4.46,0.00,25.05,27.42,30.62,14.30,48.57,1012.34,2025.89,2123.02,2089.34,2370.53,600.02,589.38,57.44,0000 0000 0000 0000 000000
2017-04-13 08:37:14,0.11,4.46,0.00,25.08,27.41,30.61,14.25,48.63,1012.34,2025.88,2121.79,2088.35,2369.43,599.64,589.16,57.49,0000 0000 0000 0000 000000
2017-04-13 08:42:15,0.12,4.47,0.00,25.05,27.40,30.58,14.26,48.63,1012.33,2025.94,2120.59,2087.49,2368.48,599.92,589.46,57.55,0000 0000 0000 0000 000000
2017-04-13 08:47:17,0.12,4.48,0.00,25.07,27.40,30.57,14.27,48.58,1012.31,2025.96,2119.15,2086.38,2367.23,600.24,589.64,57.60,0000 0000 0000 0000 000000
2017-04-13 08:52:18,0.13,4.48,0.00,25.07,27.40,30.58,14.31,48.65,1012.38,2025.96,2117.71,2085.23,2366.04,600.03,589.42,57.65,0000 0000 0000 0000 000000
2017-04-13 08:57:19,0.13,4.49,0.00,25.07,27.38,30.60,14.35,48.64,1012.41,2025.97,2116.35,2084.17,2364.79,600.09,589.58,57.70,0000 0000 0000 0000 000000
2017-04-13 09:02:20,0.13,4.49,0.00,25.06,27.37,30.58,14.29,48.68,1012.62,2025.98,2114.88,2082.97,2363.58,599.98,589.62,57.75,0000 0000 0000 0000 000000
2017-04-13 09:07:21,0.14,4.50,0.00,25.03,27.37,30.61,14.33,48.70,1012.70,2025.98,2113.46,2081.80,2362.27,599.95,589.61,57.80,0000 0000 0000 0000 000000
2017-04-13 09:12:23,0.13,4.51,0.00,25.03,27.37,30.58,14.30,48.67,1012.71,2025.99,2111.95,2080.68,2360.93,599.52,589.23,57.85,0000 0000 0000 0000 000000
2017-04-13 09:17:24,0.13,4.52,0.00,25.04,27.35,30.59,14.28,48.67,1012.71,2025.99,2110.69,2079.50,2359.72,600.23,589.90,57.90,0000 0000 0000 0000 000000
2017-04-13 09:22:25,0.11,4.52,0.00,25.02,27.35,30.57,14.36,48.61,1012.71,2025.99,2109.55,2078.53,2358.58,600.20,589.83,57.95,0000 0000 0000 0000 000000
2017-04-13 09:27:26,0.08,4.53,0.00,24.99,27.33,30.56,14.22,48.53,1012.71,2025.99,2108.45,2077.81,2357.69,600.22,589.96,58.00,0000 0000 0000 0000 000000
2017-04-13 09:32:28,0.08,4.53,0.00,24.99,27.32,30.53,14.31,48.66,1012.71,2025.99,2107.45,2077.04,2356.92,600.03,589.90,58.05,0000 0000 0000 0000 000000
2017-04-13 09:37:29,0.10,4.54,0.00,24.95,27.30,30.52,14.34,48.65,1012.71,2025.99,2106.40,2076.31,2356.05,600.15,589.88,58.10,0000 0000 0000 0000 000000
2017-04-13 09:42:31,0.10,4.54,0.00,24.96,27.30,30.52,14.29,48.55,1012.71,2025.99,2105.25,2075.48,2355.15,599.96,589.81,58.15,0000 0000 0000 0000 000000
2017-04-13 09:47:32,0.07,4.55,0.00,24.92,27.27,30.50,14.34,48.73,1012.71,2025.99,2104.19,2074.85,2354.28,600.31,590.33,58.20,0000 0000 0000 0000 000000
2017-04-13 09:52:33,0.11,4.55,0.00,24.91,27.26,30.48,14.28,48.56,1012.71,2025.99,2103.01,2073.92,2353.37,599.80,589.72,58.25,0000 0000 0000 0000 000000
2017-04-13 09:57:34,0.14,4.56,0.00,24.89,27.25,30.47,14.33,48.70,1012.71,2026.01,2101.63,2072.88,2352.12,600.23,590.21,58.30,0000 0000 0000 0000 000000
2017-04-13 10:02:35,0.14,4.56,0.00,24.87,27.22,30.44,14.30,48.61,1012.73,2026.01,2100.07,2071.75,2350.82,599.68,589.86,58.35,0000 0000 0000 0000 000000
2017-04-13 10:07:37,0.14,4.57,0.00,24.86,27.21,30.45,14.31,48.62,1012.72,2026.07,2098.60,2070.70,2349.67,599.74,589.73,58.40,0000 0000 0000 0000 000000
2017-04-13 10:12:38,0.09,4.58,0.00,24.86,27.18,30.45,14.40,48.60,1012.72,2026.10,2097.47,2069.79,2348.64,600.27,590.39,58.45,0000 0000 0000 0000 000000
2017-04-13 10:17:40,0.17,4.58,0.00,24.86,27.16,30.42,14.28,48.66,1012.71,2026.20,2096.06,2068.65,2347.40,599.98,590.01,58.51,0000 0000 0000 0000 000000
2017-04-13 10:22:41,0.21,4.59,0.00,24.88,27.15,30.39,14.27,48.60,1012.71,2026.70,2094.30,2067.46,2345.99,600.05,590.07,58.56,0000 0000 0000 0000 000000
2017-04-13 10:27:42,0.23,4.60,0.00,24.93,27.12,30.40,14.31,48.54,1012.72,2026.88,2092.05,2065.91,2344.28,600.16,590.07,58.61,0000 0000 0000 0000 000000
2017-04-13 10:32:44,0.17,4.62,0.00,24.95,27.11,30.37,14.27,48.52,1012.72,2026.91,2089.74,2064.33,2342.47,599.75,589.69,58.66,0000 0000 0000 0000 000000
2017-04-13 10:37:45,0.18,4.63,0.00,24.95,27.08,30.37,14.30,48.52,1012.72,2026.91,2087.83,2062.82,2340.79,600.14,589.85,58.71,0000 0000 0000 0000 000000
2017-04-13 10:42:47,0.20,4.64,0.00,24.97,27.06,30.36,14.28,48.49,1012.71,2026.98,2085.67,2061.28,2339.04,600.09,589.88,58.76,0000 0000 0000 0000 000000
2017-04-13 10:47:48,0.30,4.65,0.00,24.98,27.05,30.33,14.33,48.51,1012.71,2026.99,2082.72,2059.08,2336.52,600.06,589.87,58.81,0000 0000 0000 0000 000000
2017-04-13 10:52:49,0.42,4.67,0.00,24.98,27.02,30.33,14.34,48.48,1012.73,2026.99,2078.46,2055.85,2332.84,600.24,590.08,58.86,0000 0000 0000 0000 000000
2017-04-13 10:57:51,0.40,4.69,0.00,25.01,27.01,30.31,14.30,48.51,1012.71,2026.99,2074.06,2052.58,2329.12,599.73,589.55,58.91,0000 0000 0000 0000 000000
2017-04-13 11:02:52,0.47,4.71,0.00,25.09,27.00,30.30,14.32,48.38,1012.72,2026.99,2069.29,2048.83,2324.76,600.35,589.82,58.96,0000 0000 0000 0000 000000
2017-04-13 11:07:53,0.44,4.74,0.00,25.12,26.98,30.30,14.27,48.50,1012.72,2026.99,2064.70,2045.42,2320.58,599.79,589.30,59.01,0000 0000 0000 0000 000000
2017-04-13 11:12:55,0.40,4.76,0.00,25.11,26.97,30.29,14.25,48.51,1012.73,2027.00,2060.41,2042.17,2316.75,599.87,589.42,59.06,0000 0000 0000 0000 000000
2017-04-13 11:17:56,0.29,4.78,0.00,25.07,26.95,30.29,14.24,48.46,1012.73,2027.01,2057.03,2039.60,2313.86,600.02,589.60,59.11,0000 0000 0000 0000 000000
2017-04-13 11:22:57,0.26,4.79,0.00,25.02,26.94,30.29,14.20,48.47,1012.72,2027.02,2054.30,2037.51,2311.47,600.19,589.97,59.16,0000 0000 0000 0000 000000
2017-04-13 11:27:58,0.29,4.80,0.00,24.98,26.92,30.28,14.28,48.53,1012.73,2027.02,2051.42,2035.27,2308.91,600.21,590.03,59.21,0000 0000 0000 0000 000000
2017-04-13 11:32:59,0.25,4.82,0.00,24.97,26.91,30.27,14.21,48.44,1012.72,2027.05,2048.50,2033.30,2306.62,599.86,589.70,59.26,0000 0000 0000 0000 000000
2017-04-13 11:38:01,0.22,4.83,0.00,24.94,26.90,30.28,14.33,48.55,1012.72,2027.10,2046.20,2031.55,2304.55,600.44,590.31,59.32,0000 0000 0000 0000 000000
2017-04-13 11:43:02,0.24,4.84,0.00,24.93,26.88,30.27,14.24,48.52,1012.73,2027.21,2043.92,2029.77,2302.64,600.14,590.02,59.37,0000 0000 0000 0000 000000
2017-04-13 11:48:03,0.25,4.85,0.00,24.92,26.87,30.26,14.34,48.48,1012.73,2027.50,2041.53,2028.13,2300.78,600.34,590.27,59.42,0000 0000 0000 0000 000000
2017-04-13 11:53:04,0.20,4.86,0.00,24.91,26.85,30.25,14.34,48.48,1012.72,2027.47,2039.35,2026.61,2298.97,599.92,589.91,59.47,0000 0000 0000 0000 000000
2017-04-13 11:58:06,0.23,4.87,0.00,24.88,26.85,30.24,14.31,48.42,1012.72,2027.58,2037.17,2024.95,2297.15,600.01,590.02,59.52,0000 0000 0000 0000 000000
2017-04-13 12:03:07,0.23,4.89,0.00,24.88,26.83,30.25,14.21,48.31,1012.72,2027.62,2034.78,2023.12,2294.93,599.91,589.86,59.57,0000 0000 0000 0000 000000
2017-04-13 12:08:08,0.25,4.90,0.00,24.88,26.82,30.27,14.29,48.33,1012.74,2027.83,2032.32,2021.22,2292.82,600.25,590.32,59.62,0000 0000 0000 0000 000000
2017-04-13 12:13:09,0.21,4.91,0.00,24.87,26.81,30.25,14.29,48.46,1012.73,2027.78,2029.99,2019.44,2290.74,599.90,589.94,59.67,0000 0000 0000 0000 000000
2017-04-13 12:18:10,0.27,4.92,0.00,24.88,26.80,30.23,14.31,48.48,1012.73,2027.76,2027.36,2017.53,2288.57,600.11,590.00,59.72,0000 0000 0000 0000 000000
2017-04-13 12:23:12,0.25,4.94,0.00,24.83,26.79,30.25,14.33,48.49,1012.75,2027.89,2024.73,2015.68,2286.43,600.31,590.42,59.77,0000 0000 0000 0000 000000
2017-04-13 12:28:13,0.24,4.95,0.00,24.83,26.77,30.22,14.28,48.37,1012.72,2027.96,2022.24,2013.89,2284.43,599.91,590.01,59.82,0000 0000 0000 0000 000000
2017-04-13 12:33:15,0.22,4.96,0.00,24.86,26.77,30.27,14.20,48.25,1012.73,2027.98,2019.91,2012.14,2282.47,599.80,589.90,59.87,0000 0000 0000 0000 000000
2017-04-13 12:38:16,0.21,4.97,0.00,24.88,26.77,30.25,14.28,48.28,1012.73,2027.97,2017.63,2010.51,2280.56,600.01,589.96,59.92,0000 0000 0000 0000 000000
2017-04-13 12:43:17,0.18,4.98,0.00,24.84,26.76,30.24,14.31,48.31,1012.73,2027.99,2015.76,2008.96,2278.81,599.92,590.06,59.97,0000 0000 0000 0000 000000
2017-04-13 12:48:18,0.20,4.99,0.00,24.78,26.75,30.27,14.31,48.29,1012.73,2027.99,2013.69,2007.51,2277.08,599.87,590.07,60.02,0000 0000 0000 0000 000000
2017-04-13 12:53:19,0.20,5.00,0.00,24.75,26.75,30.29,14.32,48.31,1012.74,2027.98,2011.62,2005.87,2275.27,600.08,590.31,60.07,0000 0000 0000 0000 000000
2017-04-13 12:58:20,0.20,5.01,0.00,24.74,26.75,30.27,12.98,44.05,1012.77,2027.98,2009.37,2004.28,2273.39,551.99,543.12,60.12,0000 0000 0000 0000 000009